Location: Newark
(46.1292°N, 1.0086°W)
Time: 08:04:57
(UTC+00:00)

Vanguard 3 - Pass Details

Date: 20 November 2019
Orbit: 508 x 3263 km, 33.3° (Epoch: 10 December)

Event Time Altitude Azimuth Distance (km) Brightness Sun altitude
Rises 15:27:30 0° 253° (WSW) 7,116 13.4 7.8°
Reaches altitude 10° 15:32:21 10° 249° (WSW) 6,184 13.4 7.2°
Maximum altitude 15:51:10 53° 181° (S) 3,415 10.7 4.5°
Drops below altitude 10° 16:05:12 10° 110° (ESE) 4,750 10.7 2.5°
Sets 16:08:23 0° 106° (ESE) 5,436 11.0 2.0°
